Time,TemperatureF,DewpointF,PressureIn,WindDirection,WindDirectionDegrees,WindSpeedMPH,WindSpeedGustMPH,Humidity,HourlyPrecipIn,Conditions,Clouds,dailyrainin,SoftwareType,DateUTC
2013-03-14 00:02:00,27.0,23.0,-100.00,SE,140,4.0,4.0,83,0.00,,,-99.99,,2013-03-14 05:02:00,
2013-03-14 00:12:00,27.0,23.0,-100.00,SSE,150,3.0,4.0,83,0.00,,,-99.99,,2013-03-14 05:12:00,
2013-03-14 00:22:00,27.0,23.0,-100.00,SE,130,4.0,4.0,84,0.00,,,-99.99,,2013-03-14 05:22:00,
2013-03-14 00:33:00,27.0,23.0,-100.00,SE,135,1.0,4.0,84,0.00,,,-99.99,,2013-03-14 05:33:00,
2013-03-14 00:42:00,27.0,23.0,-100.00,SE,125,4.0,4.0,84,0.00,,,-99.99,,2013-03-14 05:42:00,
2013-03-14 00:52:00,27.0,23.0,-100.00,SE,125,4.0,4.0,84,0.00,,,-99.99,,2013-03-14 05:52:00,
2013-03-14 01:02:00,27.0,23.0,-100.00,SE,125,4.0,4.0,84,0.00,,,-99.99,,2013-03-14 06:02:00,
2013-03-14 01:12:00,27.0,23.0,-100.00,SE,130,3.0,4.0,84,0.00,,,-99.99,,2013-03-14 06:12:00,
2013-03-14 01:22:00,27.0,23.0,-100.00,SE,125,4.0,4.0,84,0.00,,,-99.99,,2013-03-14 06:22:00,
2013-03-14 01:32:00,27.0,23.0,-100.00,SE,125,4.0,6.0,84,0.00,,,-99.99,,2013-03-14 06:32:00,
2013-03-14 01:42:00,27.0,23.0,-100.00,SE,125,4.0,6.0,84,0.00,,,-99.99,,2013-03-14 06:42:00,
2013-03-14 01:52:00,27.0,23.0,-100.00,SE,135,4.0,5.0,84,0.00,,,-99.99,,2013-03-14 06:52:00,
2013-03-14 02:02:00,27.0,23.0,-100.00,SE,135,5.0,6.0,84,0.00,,,-99.99,,2013-03-14 07:02:00,
2013-03-14 02:12:00,27.0,23.0,-100.00,SE,130,4.0,6.0,85,0.00,,,-99.99,,2013-03-14 07:12:00,
2013-03-14 02:22:00,26.0,23.0,-100.00,SE,135,4.0,6.0,86,0.00,,,-99.99,,2013-03-14 07:22:00,
2013-03-14 02:32:00,27.0,23.0,-100.00,SE,140,5.0,6.0,86,0.00,,,-99.99,,2013-03-14 07:32:00,
2013-03-14 02:42:00,27.0,24.0,-100.00,SE,145,6.0,6.0,86,0.00,,,-99.99,,2013-03-14 07:42:00,
2013-03-14 02:52:00,27.0,24.0,-100.00,SE,140,6.0,7.0,85,0.00,,,-99.99,,2013-03-14 07:52:00,
2013-03-14 03:02:00,28.0,24.0,-100.00,SE,140,6.0,7.0,85,0.00,,,-99.99,,2013-03-14 08:02:00,
2013-03-14 03:12:00,28.0,24.0,-100.00,SSE,150,5.0,6.0,85,0.00,,,-99.99,,2013-03-14 08:12:00,
2013-03-14 03:21:00,27.0,24.0,-100.00,SSE,150,4.0,6.0,85,0.00,,,-99.99,,2013-03-14 08:21:00,
2013-03-14 03:32:00,27.0,24.0,-100.00,SE,145,4.0,5.0,85,0.00,,,-99.99,,2013-03-14 08:32:00,
2013-03-14 03:41:00,27.0,23.0,-100.00,SE,145,4.0,4.0,85,0.00,,,-99.99,,2013-03-14 08:41:00,
2013-03-14 03:51:00,27.0,23.0,-100.00,SE,135,3.0,4.0,86,0.00,,,-99.99,,2013-03-14 08:51:00,
2013-03-14 04:01:00,27.0,23.0,-100.00,SE,135,3.0,4.0,86,0.00,,,-99.99,,2013-03-14 09:01:00,
2013-03-14 04:12:00,27.0,23.0,-100.00,SSE,155,3.0,4.0,86,0.00,,,-99.99,,2013-03-14 09:12:00,
2013-03-14 04:22:00,27.0,23.0,-100.00,SE,145,4.0,4.0,86,0.00,,,-99.99,,2013-03-14 09:22:00,
2013-03-14 04:32:00,27.0,23.0,-100.00,SSE,150,6.0,6.0,86,0.00,,,-99.99,,2013-03-14 09:32:00,
2013-03-14 04:42:00,27.0,23.0,-100.00,SSE,150,6.0,6.0,86,0.00,,,-99.99,,2013-03-14 09:42:00,
2013-03-14 04:52:00,28.0,24.0,-100.00,SSE,160,6.0,6.0,86,0.00,,,-99.99,,2013-03-14 09:52:00,
2013-03-14 05:02:00,28.0,24.0,-100.00,SSE,160,6.0,6.0,86,0.00,,,-99.99,,2013-03-14 10:02:00,
2013-03-14 05:12:00,28.0,25.0,-100.00,SSE,155,6.0,7.0,86,0.00,,,-99.99,,2013-03-14 10:12:00,
2013-03-14 05:22:00,28.0,25.0,-100.00,SSE,155,5.0,6.0,86,0.00,,,-99.99,,2013-03-14 10:22:00,
2013-03-14 05:32:00,29.0,25.0,-100.00,SSE,160,5.0,6.0,86,0.00,,,-99.99,,2013-03-14 10:32:00,
2013-03-14 05:42:00,29.0,26.0,-100.00,SSE,150,6.0,7.0,86,0.00,,,-99.99,,2013-03-14 10:42:00,
2013-03-14 05:52:00,29.0,26.0,-100.00,SSE,155,6.0,7.0,86,0.00,,,-99.99,,2013-03-14 10:52:00,
2013-03-14 06:02:00,29.0,26.0,-100.00,SSE,160,6.0,7.0,85,0.00,,,-99.99,,2013-03-14 11:02:00,
2013-03-14 06:12:00,30.0,26.0,-100.00,SSE,150,6.0,7.0,85,0.00,,,-99.99,,2013-03-14 11:12:00,
2013-03-14 06:22:00,30.0,26.0,-100.00,SSE,155,6.0,7.0,84,0.00,,,-99.99,,2013-03-14 11:22:00,
2013-03-14 06:33:00,30.0,26.0,-100.00,SSE,160,7.0,8.0,83,0.00,,,-99.99,,2013-03-14 11:33:00,
2013-03-14 06:42:00,30.0,26.0,-100.00,SSE,160,7.0,8.0,83,0.00,,,-99.99,,2013-03-14 11:42:00,
2013-03-14 06:52:00,31.0,26.0,-100.00,SE,145,6.0,7.0,82,0.00,,,-99.99,,2013-03-14 11:52:00,
2013-03-14 07:02:00,31.0,26.0,-100.00,SE,135,6.0,7.0,81,0.00,,,-99.99,,2013-03-14 12:02:00,
2013-03-14 07:12:00,31.0,26.0,-100.00,SE,130,5.0,7.0,81,0.00,,,-99.99,,2013-03-14 12:12:00,
2013-03-14 07:22:00,30.0,26.0,-100.00,ESE,110,5.0,7.0,82,0.00,,,-99.99,,2013-03-14 12:22:00,
2013-03-14 07:33:00,31.0,26.0,-100.00,ESE,120,6.0,7.0,82,0.00,,,-99.99,,2013-03-14 12:33:00,
2013-03-14 07:42:00,31.0,26.0,-100.00,ESE,115,6.0,8.0,81,0.00,,,-99.99,,2013-03-14 12:42:00,
2013-03-14 07:52:00,31.0,26.0,-100.00,ESE,120,6.0,9.0,80,0.00,,,-99.99,,2013-03-14 12:52:00,
2013-03-14 08:02:00,31.0,26.0,-100.00,ESE,120,6.0,9.0,80,0.00,,,-99.99,,2013-03-14 13:02:00,
2013-03-14 08:12:00,31.0,26.0,-100.00,SE,125,7.0,10.0,80,0.00,,,-99.99,,2013-03-14 13:12:00,
2013-03-14 08:22:00,31.0,26.0,-100.00,SE,135,7.0,9.0,80,0.00,,,-99.99,,2013-03-14 13:22:00,
2013-03-14 08:32:00,32.0,27.0,-100.00,SE,140,8.0,9.0,79,0.00,,,-99.99,,2013-03-14 13:32:00,
2013-03-14 08:42:00,33.0,27.0,-100.00,SE,145,7.0,10.0,78,0.00,,,-99.99,,2013-03-14 13:42:00,
2013-03-14 08:52:00,33.0,27.0,-100.00,SE,135,8.0,10.0,78,0.00,,,-99.99,,2013-03-14 13:52:00,
2013-03-14 09:02:00,33.0,27.0,-100.00,SE,135,9.0,11.0,78,0.00,,,-99.99,,2013-03-14 14:02:00,
2013-03-14 09:12:00,34.0,27.0,-100.00,SE,145,8.0,11.0,76,0.00,,,-99.99,,2013-03-14 14:12:00,
2013-03-14 09:22:00,34.0,27.0,-100.00,SE,145,8.0,11.0,76,0.00,,,-99.99,,2013-03-14 14:22:00,
2013-03-14 09:32:00,35.0,27.0,-100.00,SSE,165,9.0,11.0,75,0.00,,,-99.99,,2013-03-14 14:32:00,
2013-03-14 09:42:00,35.0,28.0,-100.00,South,170,7.0,11.0,75,0.00,,,-99.99,,2013-03-14 14:42:00,
2013-03-14 09:52:00,34.0,27.0,-100.00,SSE,155,9.0,12.0,76,0.00,,,-99.99,,2013-03-14 14:52:00,
2013-03-14 10:02:00,36.0,29.0,-100.00,SSE,165,7.0,10.0,75,0.00,,,-99.99,,2013-03-14 15:02:00,
2013-03-14 10:12:00,36.0,28.0,-100.00,South,170,8.0,10.0,73,0.00,,,-99.99,,2013-03-14 15:12:00,
2013-03-14 10:22:00,37.0,29.0,-100.00,South,180,7.0,11.0,72,0.00,,,-99.99,,2013-03-14 15:22:00,
2013-03-14 10:32:00,38.0,29.0,-100.00,ENE,60,3.0,8.0,68,0.00,,,-99.99,,2013-03-14 15:32:00,
2013-03-14 10:43:00,38.0,29.0,-100.00,ENE,60,3.0,8.0,68,0.00,,,-99.99,,2013-03-14 15:43:00,
2013-03-14 10:52:00,40.0,29.0,-100.00,ESE,120,6.0,6.0,65,0.00,,,-99.99,,2013-03-14 15:52:00,
2013-03-14 11:03:00,40.0,29.0,-100.00,ESE,120,6.0,6.0,65,0.00,,,-99.99,,2013-03-14 16:03:00,
2013-03-14 11:12:00,40.0,29.0,-100.00,East,95,6.0,7.0,64,0.00,,,-99.99,,2013-03-14 16:12:00,
2013-03-14 11:22:00,40.0,29.0,-100.00,ESE,120,6.0,7.0,62,0.00,,,-99.99,,2013-03-14 16:22:00,
2013-03-14 11:32:00,42.0,29.0,-100.00,SSE,155,5.0,9.0,60,0.00,,,-99.99,,2013-03-14 16:32:00,
2013-03-14 11:42:00,42.0,29.0,-100.00,SSE,155,5.0,9.0,60,0.00,,,-99.99,,2013-03-14 16:42:00,
2013-03-14 11:52:00,44.0,30.0,-100.00,SSE,160,6.0,9.0,56,0.00,,,-99.99,,2013-03-14 16:52:00,
2013-03-14 12:02:00,44.0,30.0,-100.00,SSE,160,6.0,9.0,56,0.00,,,-99.99,,2013-03-14 17:02:00,
2013-03-14 12:12:00,45.0,28.0,-100.00,SSW,195,7.0,9.0,52,0.00,,,-99.99,,2013-03-14 17:12:00,
2013-03-14 12:23:00,45.0,28.0,-100.00,South,185,6.0,8.0,50,0.00,,,-99.99,,2013-03-14 17:23:00,
2013-03-14 12:32:00,46.0,29.0,-100.00,SSW,205,7.0,9.0,49,0.00,,,-99.99,,2013-03-14 17:32:00,
2013-03-14 12:42:00,46.0,29.0,-100.00,SSW,205,7.0,9.0,49,0.00,,,-99.99,,2013-03-14 17:42:00,
2013-03-14 12:52:00,48.0,29.0,-100.00,SSW,195,6.0,12.0,48,0.00,,,-99.99,,2013-03-14 17:52:00,
2013-03-14 13:02:00,48.0,29.0,-100.00,SSW,195,6.0,12.0,48,0.00,,,-99.99,,2013-03-14 18:02:00,
2013-03-14 13:12:00,49.0,30.0,-100.00,South,190,6.0,9.0,48,0.00,,,-99.99,,2013-03-14 18:12:00,
2013-03-14 13:22:00,50.0,31.0,-100.00,SSW,205,6.0,9.0,48,0.00,,,-99.99,,2013-03-14 18:22:00,
2013-03-14 13:32:00,51.0,31.0,-100.00,SW,215,3.0,7.0,46,0.00,,,-99.99,,2013-03-14 18:32:00,
2013-03-14 13:42:00,51.0,31.0,-100.00,SW,215,3.0,7.0,46,0.00,,,-99.99,,2013-03-14 18:42:00,
2013-03-14 13:52:00,51.0,31.0,-100.00,WNW,290,5.0,9.0,44,0.00,,,-99.99,,2013-03-14 18:52:00,
2013-03-14 14:02:00,51.0,31.0,-100.00,WNW,290,5.0,9.0,44,0.00,,,-99.99,,2013-03-14 19:02:00,
2013-03-14 14:12:00,52.0,31.0,-100.00,WSW,250,4.0,7.0,43,0.00,,,-99.99,,2013-03-14 19:12:00,
2013-03-14 14:22:00,52.0,30.0,-100.00,West,280,5.0,11.0,43,0.00,,,-99.99,,2013-03-14 19:22:00,
2013-03-14 14:32:00,53.0,31.0,-100.00,WNW,295,4.0,9.0,43,0.00,,,-99.99,,2013-03-14 19:32:00,
2013-03-14 14:42:00,53.0,31.0,-100.00,WNW,295,4.0,9.0,43,0.00,,,-99.99,,2013-03-14 19:42:00,
2013-03-14 14:52:00,52.0,31.0,-100.00,West,275,6.0,13.0,44,0.00,,,-99.99,,2013-03-14 19:52:00,
2013-03-14 15:02:00,52.0,31.0,-100.00,West,275,6.0,13.0,44,0.00,,,-99.99,,2013-03-14 20:02:00,
2013-03-14 15:11:00,53.0,32.0,-100.00,West,265,6.0,10.0,44,0.00,,,-99.99,,2013-03-14 20:11:00,
2013-03-14 15:22:00,53.0,32.0,-100.00,WNW,290,6.0,11.0,44,0.00,,,-99.99,,2013-03-14 20:22:00,
2013-03-14 15:32:00,53.0,32.0,-100.00,West,280,4.0,12.0,44,0.00,,,-99.99,,2013-03-14 20:32:00,
2013-03-14 15:42:00,53.0,32.0,-100.00,West,280,4.0,12.0,44,0.00,,,-99.99,,2013-03-14 20:42:00,
2013-03-14 15:52:00,54.0,33.0,-100.00,NW,315,4.0,10.0,44,0.00,,,-99.99,,2013-03-14 20:52:00,
2013-03-14 16:02:00,54.0,33.0,-100.00,NW,315,4.0,10.0,44,0.00,,,-99.99,,2013-03-14 21:02:00,
2013-03-14 16:12:00,54.0,33.0,-100.00,NW,325,7.0,12.0,45,0.00,,,-99.99,,2013-03-14 21:12:00,
2013-03-14 16:22:00,54.0,34.0,-100.00,NNW,330,6.0,13.0,45,0.00,,,-99.99,,2013-03-14 21:22:00,
2013-03-14 16:32:00,54.0,33.0,-100.00,NNW,345,5.0,12.0,45,0.00,,,-99.99,,2013-03-14 21:32:00,
2013-03-14 16:43:00,54.0,33.0,-100.00,NNW,345,5.0,12.0,45,0.00,,,-99.99,,2013-03-14 21:43:00,
2013-03-14 16:52:00,54.0,34.0,-100.00,North,0,4.0,11.0,46,0.00,,,-99.99,,2013-03-14 21:52:00,
2013-03-14 17:03:00,54.0,34.0,-100.00,North,0,4.0,11.0,46,0.00,,,-99.99,,2013-03-14 22:03:00,
2013-03-14 17:12:00,53.0,33.0,-100.00,North,5,5.0,10.0,46,0.00,,,-99.99,,2013-03-14 22:12:00,
2013-03-14 17:23:00,54.0,34.0,-100.00,North,355,3.0,8.0,46,0.00,,,-99.99,,2013-03-14 22:23:00,
2013-03-14 17:33:00,53.0,33.0,-100.00,NNW,345,6.0,12.0,47,0.00,,,-99.99,,2013-03-14 22:33:00,
2013-03-14 17:42:00,53.0,33.0,-100.00,NNW,345,6.0,12.0,47,0.00,,,-99.99,,2013-03-14 22:42:00,
2013-03-14 17:52:00,51.0,33.0,-100.00,NW,310,5.0,12.0,50,0.00,,,-99.99,,2013-03-14 22:52:00,
2013-03-14 18:02:00,51.0,33.0,-100.00,NW,310,5.0,12.0,50,0.00,,,-99.99,,2013-03-14 23:02:00,
2013-03-14 18:12:00,50.0,33.0,-100.00,NW,325,7.0,12.0,52,0.00,,,-99.99,,2013-03-14 23:12:00,
2013-03-14 18:22:00,49.0,33.0,-100.00,NNW,335,4.0,9.0,54,0.00,,,-99.99,,2013-03-14 23:22:00,
2013-03-14 18:33:00,48.0,33.0,-100.00,NW,325,3.0,6.0,56,0.00,,,-99.99,,2013-03-14 23:33:00,
2013-03-14 18:42:00,48.0,33.0,-100.00,NW,325,3.0,6.0,56,0.00,,,-99.99,,2013-03-14 23:42:00,
2013-03-14 18:53:00,46.0,33.0,-100.00,North,5,4.0,4.0,60,0.00,,,-99.99,,2013-03-14 23:53:00,
2013-03-14 19:02:00,46.0,33.0,-100.00,North,5,4.0,4.0,60,0.00,,,-99.99,,2013-03-15 00:02:00,
2013-03-14 19:12:00,45.0,33.0,-100.00,North,0,3.0,5.0,62,0.00,,,-99.99,,2013-03-15 00:12:00,
2013-03-14 19:22:00,44.0,33.0,-100.00,North,350,4.0,5.0,64,0.00,,,-99.99,,2013-03-15 00:22:00,
2013-03-14 19:32:00,42.0,33.0,-100.00,NNW,330,4.0,10.0,68,0.00,,,-99.99,,2013-03-15 00:32:00,
2013-03-14 19:42:00,42.0,33.0,-100.00,NNW,330,4.0,10.0,68,0.00,,,-99.99,,2013-03-15 00:42:00,
2013-03-14 19:52:00,41.0,32.0,-100.00,North,355,3.0,4.0,71,0.00,,,-99.99,,2013-03-15 00:52:00,
2013-03-14 20:02:00,41.0,32.0,-100.00,North,355,3.0,4.0,71,0.00,,,-99.99,,2013-03-15 01:02:00,
2013-03-14 20:11:00,40.0,33.0,-100.00,North,5,4.0,6.0,73,0.00,,,-99.99,,2013-03-15 01:11:00,
2013-03-14 20:22:00,40.0,32.0,-100.00,North,0,4.0,6.0,74,0.00,,,-99.99,,2013-03-15 01:22:00,
2013-03-14 20:32:00,38.0,31.0,-100.00,North,0,3.0,4.0,77,0.00,,,-99.99,,2013-03-15 01:32:00,
2013-03-14 20:42:00,38.0,31.0,-100.00,North,0,3.0,4.0,77,0.00,,,-99.99,,2013-03-15 01:42:00,
2013-03-14 20:52:00,36.0,31.0,-100.00,North,355,4.0,5.0,80,0.00,,,-99.99,,2013-03-15 01:52:00,
2013-03-14 21:02:00,36.0,31.0,-100.00,North,355,4.0,5.0,80,0.00,,,-99.99,,2013-03-15 02:02:00,
2013-03-14 21:12:00,36.0,31.0,-100.00,North,355,4.0,5.0,81,0.00,,,-99.99,,2013-03-15 02:12:00,
2013-03-14 21:22:00,36.0,31.0,-100.00,North,355,4.0,4.0,82,0.00,,,-99.99,,2013-03-15 02:22:00,
2013-03-14 21:32:00,35.0,31.0,-100.00,North,355,2.0,3.0,84,0.00,,,-99.99,,2013-03-15 02:32:00,
2013-03-14 21:42:00,35.0,31.0,-100.00,North,355,2.0,3.0,84,0.00,,,-99.99,,2013-03-15 02:42:00,
2013-03-14 21:52:00,35.0,31.0,-100.00,NNW,330,3.0,4.0,86,0.00,,,-99.99,,2013-03-15 02:52:00,
2013-03-14 22:02:00,35.0,31.0,-100.00,NNW,330,3.0,4.0,86,0.00,,,-99.99,,2013-03-15 03:02:00,
2013-03-14 22:12:00,35.0,31.0,-100.00,NW,320,2.0,4.0,87,0.00,,,-99.99,,2013-03-15 03:12:00,
2013-03-14 22:22:00,35.0,32.0,-100.00,NW,320,4.0,4.0,88,0.00,,,-99.99,,2013-03-15 03:22:00,
2013-03-14 22:33:00,35.0,32.0,-100.00,WNW,300,1.0,3.0,88,0.00,,,-99.99,,2013-03-15 03:33:00,
2013-03-14 22:42:00,35.0,32.0,-100.00,WNW,300,1.0,3.0,88,0.00,,,-99.99,,2013-03-15 03:42:00,
2013-03-14 22:52:00,35.0,32.0,-100.00,NW,305,2.0,2.0,89,0.00,,,-99.99,,2013-03-15 03:52:00,
2013-03-14 23:03:00,35.0,32.0,-100.00,NW,305,2.0,2.0,89,0.00,,,-99.99,,2013-03-15 04:03:00,
2013-03-14 23:12:00,34.0,32.0,-100.00,NW,320,0.0,2.0,89,0.00,,,-99.99,,2013-03-15 04:12:00,
2013-03-14 23:22:00,34.0,31.0,-100.00,SSW,210,0.0,0.0,89,0.00,,,-99.99,,2013-03-15 04:22:00,
2013-03-14 23:32:00,33.0,31.0,-100.00,SW,235,0.0,0.0,90,0.00,,,-99.99,,2013-03-15 04:32:00,
2013-03-14 23:42:00,33.0,31.0,-100.00,SW,235,0.0,0.0,90,0.00,,,-99.99,,2013-03-15 04:42:00,
2013-03-14 23:52:00,33.0,31.0,-100.00,SSW,210,0.0,1.0,91,0.00,,,-99.99,,2013-03-15 04:52:00,